Regional Weather Roundup
Issued by NWS

Home | Current Version | Previous Version | Text Only | Print | Product List | Glossary Off
Versions: 1 2 3 4 5 6 7 8 9 10 11 12 13 14 15 16 17 18 19 20 21 22 23 24 25 26 27 28 29 30 31 32 33 34 35 36 37 38 39 40 41 42 43 44 45 46 47 48 49 50

999
ASUS43 KMPX 270610
RWRMN
WEATHER ROUNDUP FOR MINNESOTA
NATIONAL WEATHER SERVICE TWIN CITIES/CHANHASSEN MN
100 AM CDT THU APR 27 2017


NOTE: "FAIR" INDICATES FEW OR NO CLOUDS BELOW 12,000 FEET WITH NO
SIGNIFICANT WEATHER AND/OR OBSTRUCTIONS TO VISIBILITY. N/A MEANS
CURRENT SKY AND/OR WEATHER CONDITIONS ARE NOT AVAILABLE.

MNZ060>063-068>070-270700-
   Twin Cities Metro

CITY           SKY/WX    TMP DP  RH WIND       PRES   REMARKS
TWIN CITIES    CLOUDY    36  30  79 N12       29.56F
6HR MIN TEMP:  36; 6HR MAX TEMP:  40; 6HR PCP: TRACE;

ST PAUL        CLOUDY    36  32  85 NW10      29.56F
CRYSTAL        CLOUDY    34  30  85 NW8       29.55F WCI  27
LAKEVILLE      CLOUDY    34  34 100 NW7       29.55F WCI  28
EDEN PRAIRIE   CLOUDY    35  32  88 NW12G21   29.55F FOG     WCI  27
6HR MIN TEMP:  35; 6HR MAX TEMP:  39; 6HR PCP: TRACE;

SOUTH ST PAUL  CLOUDY    37  33  86 N7        29.55F
LAKE ELMO      CLOUDY    34  34 100 N6        29.56F WCI  29
$$
MNZ001>005-007-008-013>017-022>024-027-028-270700-
   Northwest Minnesota

CITY           SKY/WX    TMP DP  RH WIND       PRES   REMARKS
BEMIDJI        FLURRIES  24  20  87 NE9       29.66R WCI  14
HALLOCK        LGT SNOW  30  27  86 NE10      29.77F WCI  21
ROSEAU         LGT SNOW  27  21  80 NE14      29.73F WCI  15
WARROAD        LGT SNOW  27  21  80 NE21G29   29.74F WCI  13
THIEF RVR FALL FLURRIES  26  23  88 NE15      29.72S WCI  14
CROOKSTON      CLOUDY    28  25  86 NE9       29.74S WCI  20
FOSSTON        LGT SNOW  23  21  93 N8        29.68S WCI  14
DETROIT LAKES  CLOUDY    28  28 100 N5        29.66S WCI  23
MOORHEAD       CLOUDY    27  25  93 N6        29.71R WCI  20
PARK RAPIDS    CLOUDY    27  20  75 N9        29.63R WCI  18
MAHNOMEN       CLOUDY    26  24  90 N5        29.67R WCI  20
$$
MNZ006-009>011-018-025>026-270700-
   North Central Minnesota

CITY           SKY/WX    TMP DP  RH WIND       PRES   REMARKS
BAUDETTE       CLOUDY    24  17  74 NE13      29.71F WCI  12
FLAG ISLAND    CLOUDY    27  19  74 NE25G31   29.75F WCI  11
INTL FALLS     CLOUDY    23  15  71 NE10G20   29.69R WCI  12
6HR MIN TEMP:  23; 6HR MAX TEMP:  26; 6HR PCP:  0.01;

WASKISH        CLOUDY    25  19  80 N12       29.68S WCI  14
BIG FORK       CLOUDY    25  18  74 N8        29.65R WCI  16
LONGVILLE      CLOUDY    27  21  80 N5        29.63R WCI  21
GRAND RAPIDS   CLOUDY    24  20  84 N6        29.65  WCI  17
CRANE LAKE     CLOUDY    21  18  86 N7        29.69R WCI  13
ORR            CLOUDY    21  16  79 NE3       29.63R
COOK           CLOUDY    21  18  86 NE6       29.64R WCI  14
WALKER         CLOUDY    24  20  83 N10       29.64R WCI  14
$$
MNZ012-019>021-037-270700-
   Northeast Minnesota

CITY           SKY/WX    TMP DP  RH WIND       PRES   REMARKS
DULUTH         CLOUDY    25  22  88 N9        29.58F WCI  15
6HR MIN TEMP:  25; 6HR MAX TEMP:  31;

ELY            CLOUDY    21  18  86 NE5       29.62R WCI  15
HIBBING        CLOUDY    22  19  89 N10       29.62R WCI  11
EVELETH        CLOUDY    23  18  81 N5        29.63R WCI  17
DULUTH HARBOR  CLOUDY    28  25  86 N9        29.63S WCI  20
TWO HARBORS    CLOUDY    27  21  80 N6        29.59R WCI  20
SILVER BAY     CLOUDY    25  21  86 N5        29.59S FOG     WCI  19
GRAND MARAIS     N/A     24  19  81 N13G20    29.62R WCI  12
G MARAIS ARPRT CLOUDY    18  12  79 N3        29.57R
$$
MNZ029>031-032-039>041-046>048-054>057-064-270700-
   West Central Minnesota

CITY           SKY/WX    TMP DP  RH WIND       PRES   REMARKS
FERGUS FALLS   CLOUDY    28  25  86 N8        29.66S WCI  20
WHEATON        CLOUDY    28  25  86 N14       29.69S WCI  17
MORRIS         CLOUDY    30  28  93 NW10      29.63F WCI  21
ALEXANDRIA     CLOUDY    29  26  89 N12       29.62S WCI  19
ELBOW LAKE     CLOUDY    30  28  94 N10       29.65S WCI  21
WADENA         MIX PCPN  27  25  93 N5        29.63R WCI  21
GLENWOOD       MOCLDY    28  27  93 N9        29.61F WCI  20
APPLETON       CLOUDY    30  28  93 NW10      29.64F WCI  21
BENSON         CLOUDY    34  28  80 N9        29.64F HAZE    WCI  26
ORTONVILLE     CLOUDY    28  25  86 N14       29.66F WCI  17
MADISON        CLOUDY    32  32 100 N13       29.65F FOG     WCI  22
WILLMAR        CLOUDY    34  30  86 N9        29.62F WCI  26
$$
MNZ033>034-036-042>043-049>051-058-059-270700-
   Central Minnesota

CITY           SKY/WX    TMP DP  RH WIND       PRES   REMARKS
ST CLOUD       CLOUDY    31  30  96 NW9       29.59F WCI  23
6HR MIN TEMP:  31; 6HR MAX TEMP:  33; 6HR PCP: TRACE;

SAUK CENTRE    CLOUDY    29  26  89 N9        29.61F WCI  21
PAYNESVILLE    CLOUDY    31  31 100 NW7       29.61F WCI  24
AITKIN         CLOUDY    28  23  80 N6        29.60S WCI  22
PINE RIVER     LGT SNOW  27  25  93 N6        29.66R WCI  20
BRAINERD       CLOUDY    28  26  92 N8        29.61S WCI  20
STAPLES        CLOUDY    27  27 100 N5        29.62S WCI  21
LONG PRAIRIE   CLOUDY    28  27  93 CALM      29.61F
LITTLE FALLS   CLOUDY    30  28  93 CALM      29.61F
LITCHFIELD     CLOUDY    34  30  86 NW8       29.60F FOG     WCI  27
BUFFALO        CLOUDY    32  31  95 NW7       29.59F FOG     WCI  26
MAPLE LAKE     CLOUDY    33  32  97 NW9       29.59F FOG     WCI  25
HUTCHINSON     CLOUDY    33  31  91 NW9       29.60F WCI  26
$$
MNZ037-044-045-052-053-270700-
   East Central Minnesota

CITY           SKY/WX    TMP DP  RH WIND       PRES   REMARKS
PRINCETON      LGT RAIN  34  30  86 N7        29.58F WCI  28
MORA           CLOUDY    32  28  86 CALM      29.60F
CAMBRIDGE      CLOUDY    36  30  80 NW5       29.56F
RUSH CITY      CLOUDY    32  30  91 N9        29.57F WCI  24
MOOSE LAKE     CLOUDY    30  25  80 N7        29.58F WCI  23
HINCKLEY       CLOUDY    32  30  93 NE7       29.59F WCI  26
CLOQUET        CLOUDY    27  21  80 N5        29.59F WCI  21
MCGREGOR       CLOUDY    28  25  86 CALM      29.62R
$$
MNZ071>073-080-081-089-090-097-098-270700-
   Southwest Minnesota

CITY           SKY/WX    TMP DP  RH WIND       PRES   REMARKS
MONTEVIDEO     CLOUDY    30  30 100 N12       29.63F FOG     WCI  21
GRANITE FALLS  CLOUDY    32  30  93 NW15      29.64F WCI  22
CANBY          CLOUDY    31  29  92 W13       29.66F WCI  21
MARSHALL       CLOUDY    30  27  88 NW20      29.62F WCI  17
REDWOOD FALLS  CLOUDY    32  28  85 NW10      29.61F WCI  24
OLIVIA         CLOUDY    32  30  93 NW9       29.60F WCI  24
PIPESTONE      CLOUDY    28  21  74 N15G23    29.62F WCI  17
WINDOM         PTCLDY    30  28  93 NW17      29.61S WCI  18
WORTHINGTON    CLOUDY    29  26  89 NW15      29.63R WCI  18
JACKSON        CLOUDY    30  28  93 NW18      29.62R WCI  18
TRACY          CLOUDY    31  29  92 NW14      29.62F WCI  20
SLAYTON        CLOUDY    28  26  91 NW16      29.62F WCI  16
$$
MNZ065>067-074>077-082>085-091>093-270700-
   South Central Minnesota

CITY           SKY/WX    TMP DP  RH WIND       PRES   REMARKS
MANKATO        CLOUDY    34  31  88 NW12      29.59F WCI  25
NEW ULM        CLOUDY    32  30  93 NW14      29.60S WCI  22
ST JAMES       CLOUDY    32  30  93 W17       29.61F WCI  21
FAIRMONT       CLOUDY    31  30  96 NW17      29.61S WCI  19
GLENCOE        CLOUDY    33  33 100 NW7       29.58F FOG     WCI  27
FARIBAULT      CLOUDY    36  34  93 W8        29.56F FOG
OWATONNA       DRIZZLE   36  34  93 NW12      29.56R
WASECA         CLOUDY    34  32  93 NW13G18   29.58S WCI  25
ALBERT LEA     CLOUDY    34  32  93 NW8       29.56R WCI  27
$$
MNZ078>079-086>088-094>096-270700-
   Southeast Minnesota

CITY           SKY/WX    TMP DP  RH WIND       PRES   REMARKS
ROCHESTER      CLOUDY    36  34  92 NW12      29.53R
6HR MIN TEMP:  35; 6HR MAX TEMP:  39; 6HR PCP: TRACE;

RED WING       CLOUDY    37  30  75 N6        29.53F
STANTON        CLOUDY    37  33  87 N13       29.54F
DODGE CENTER   CLOUDY    36  34  93 NW9       29.53R
WINONA         CLOUDY    37  37 100 NW8       29.52S
AUSTIN         CLOUDY    36  34  93 NW10      29.54S FOG
PRESTON        CLOUDY    36  33  90 N9        29.53R
$$
ABBREVIATIONS USED IN REMARKS
   TC - TEMPERATURES IN CELSIUS
  WCI - WIND CHILL INDEX
   HX - HEAT INDEX
  VSB - VISIBILITY
$$




USA.gov is the U.S. government's official web portal to all federal, state and local government web resources and services.